Regional Weather Roundup
Issued by NWS

Home | Current Version | Previous Version | Graphics & Text | Print | Product List | Glossary Off
Versions: 1 2 3 4 5 6 7 8 9 10 11 12 13 14 15 16 17 18 19 20 21 22 23 24 25 26 27 28 29 30 31 32 33 34 35 36 37 38 39 40 41 42 43 44 45 46 47 48 49 50

000
ASUS43 KLSX 170607
RWRMO

WEATHER SUMMARY FOR MISSOURI
NATIONAL WEATHER SERVICE SPRINGFIELD MO
100 AM CDT THU AUG 17 2017

NOTE: "FAIR" INDICATES FEW OR NO CLOUDS BELOW 12,000 FEET WITH NO
       SIGNIFICANT WEATHER AND/OR OBSTRUCTIONS TO VISIBILITY.
       CURRENT SKY AND/OR WEATHER CONDITIONS ARE NOT AVAILABLE FOR
       CHILLICOTHE AND FARMINGTON.

MOZ001>031-035>038-043-044-053-054-170700-
...NORTHERN AND WESTERN MISSOURI...

CITY           SKY/WX    TMP DP  RH WIND       PRES   REMARKS
KANSAS CTY INT CLOUDY    69  67  93 S8        29.85R
6HR MIN TEMP:  69; 6HR MAX TEMP:  77; 6HR PCP: TRACE;

KANSAS C DTWN  CLOUDY    71  68  90 SW5       29.84R
6HR MIN TEMP:  71; 6HR MAX TEMP:  79; 6HR PCP:  0.03;

LEE`S SUMMIT   CLOUDY    68  68 100 SW10      29.86F
6HR MIN TEMP:  68; 6HR MAX TEMP:  75; 6HR PCP:  0.02;

ST JOSEPH      MOCLDY    71  68  90 W7        29.83R FOG
6HR MIN TEMP:  71; 6HR MAX TEMP:  81;

CHILLICOTHE      N/A     73  72  96 SW7       29.84R
6HR MIN TEMP:  72; 6HR MAX TEMP:  78; 6HR PCP:  0.02;

KIRKSVILLE     CLOUDY    72  68  87 SW14      29.84R
6HR MIN TEMP:  72; 6HR MAX TEMP:  79; 6HR PCP:  0.01;


$$
MOZ066>068-077>081-088>096-101>105-170700-
...SOUTHWEST MISSOURI...

CITY           SKY/WX    TMP DP  RH WIND       PRES   REMARKS
SPRINGFIELD    LGT RAIN  68  67  96 SE10      29.89F
6HR MIN TEMP:  68; 6HR MAX TEMP:  81; 6HR PCP:  0.48;

JOPLIN         LGT RAIN  69  68  96 SE7       29.90F
6HR MIN TEMP:  69; 6HR MAX TEMP:  84; 6HR PCP:  0.91;

BRANSON        LGT RAIN  66  66 100 S6        29.98F

$$
MOZ032>034-039>042-045>050-055>058-069>072-170700-
...CENTRAL MISSOURI...

CITY           SKY/WX    TMP DP  RH WIND       PRES   REMARKS
COLUMBIA       CLOUDY    68  67  96 S12       29.89R
6HR MIN TEMP:  68; 6HR MAX TEMP:  74; 6HR PCP:  0.09;

JEFFERSON CITY LGT RAIN  69  68  96 VRB7      29.88R
6HR MIN TEMP:  69; 6HR MAX TEMP:  76; 6HR PCP:  0.66;

ROLLA          LGT RAIN  66  66 100 S12       29.93F
6HR MIN TEMP:  66; 6HR MAX TEMP:  72; 6HR PCP:  1.00;

SEDALIA        CLOUDY    70  70 100 SW8       29.88R
6HR MIN TEMP:  69; 6HR MAX TEMP:  79; 6HR PCP:  0.26;

WHITEMAN AFB   CLOUDY    69  69 100 SW10      29.86R
WARRENSBURG    MOCLDY    68  64  88 S8        29.86F
OSAGE BEACH    RAIN      67  66  97 S12       29.90R

$$
MOZ051-052-059>065-170700-
...EAST CENTRAL MISSOURI...

CITY           SKY/WX    TMP DP  RH WIND       PRES   REMARKS
ST LOUIS INTL  LGT RAIN  71  70  96 S9        29.90F
6HR MIN TEMP:  71; 6HR MAX TEMP:  74; 6HR PCP:  0.09;

SPIRIT OF STL  LGT RAIN  70  69  97 S9        29.88F
6HR MIN TEMP:  70; 6HR MAX TEMP:  73; 6HR PCP:  0.30;

ST CHARLES     LGT RAIN  70  70 100 S6        29.87F
6HR MIN TEMP:  70; 6HR MAX TEMP:  74; 6HR PCP:  0.26;


$$
MOZ072>076-082>087-097>100-106>115-170700-
...SOUTH CENTRAL AND SOUTHEAST MISSOURI...

CITY           SKY/WX    TMP DP  RH WIND       PRES   REMARKS
CAPE GIRARDEAU CLEAR     72  70  93 CALM      29.92F
6HR MIN TEMP:  71; 6HR MAX TEMP:  83; 6HR PCP:  0.68;

FARMINGTON     CLOUDY    70  69  97 S6        29.93S
6HR MIN TEMP:  69; 6HR MAX TEMP:  70; 6HR PCP:  0.14;

POPLAR BLUFF   CLEAR     78  77  96 S6        29.92S
6HR MIN TEMP:  75; 6HR MAX TEMP:  83;

WEST PLAINS    CLOUDY    79  72  79 S8        29.94F
6HR MIN TEMP:  79; 6HR MAX TEMP:  83;


$$


USA.gov is the U.S. government's official web portal to all federal, state and local government web resources and services.